Weather Service Report


959 
ASUS43 KLOT 051812
RWRIL 

ILLINOIS REGIONAL WEATHER ROUNDUP
NATIONAL WEATHER SERVICE CHICAGO/ROMEOVILLE IL
1200 PM CST MON DEC 05 2016

NOTE: "FAIR" INDICATES FEW OR NO CLOUDS BELOW 12,000 FEET WITH NO
SIGNIFICANT WEATHER AND/OR OBSTRUCTIONS TO VISIBILITY.

* THESE STATIONS ARE NOT UNDER NWS QUALITY CONTROL. THEY ALSO MAY NOT
  REPORT WEATHER SUCH AS PRECIPITATION OR FOG.

ILZ001-002-007-009-015-016-024-051900-
NORTHWEST ILLINOIS
  
CITY           SKY/WX    TMP DP  RH WIND       PRES   REMARKS
MOLINE         CLOUDY    35  32  88 S8        29.96F FOG     WCI  29  
6HR MIN TEMP:  32; 6HR MAX TEMP:  35;                                

STERLING*      CLOUDY    34  32  92 VRB7      30.00S FOG     WCI  28  
SAVANNA*       CLOUDY    32  32  99 S12       29.97F FOG     WCI  23  
$$

ILZ003-004-008-010-011-017-018-051900-
NORTH CENTRAL ILLINOIS
  
CITY           SKY/WX    TMP DP  RH WIND       PRES   REMARKS
ROCKFORD       FOG       31  30  96 S17       30.02S VSB 1   WCI  19  
6HR MIN TEMP:  31; 6HR MAX TEMP:  33; 6HR PCP: TRACE;                

FREEPORT*      FOG       30  30  99 S13       29.99F VSB 3/4 WCI  20  
ROCHELLE*      FOG       31  31  99 S12       30.00F VSB 3/4 WCI  22  
DE KALB*       FOG       31  31  99 S12       30.00F VSB 1/4 WCI  22  
$$

ILZ005-006-012>014-019>023-051900-
NORTHEAST ILLINOIS
  
CITY           SKY/WX    TMP DP  RH WIND       PRES   REMARKS
CHICAGO-OHARE  CLOUDY    32  31  96 S13       30.02F FOG     WCI  22  
6HR MIN TEMP:  32; 6HR MAX TEMP:  33;                                

CHICAGO-MIDWAY CLOUDY    33  29  85 S14       30.04S WCI  23          
6HR MIN TEMP:  33; 6HR MAX TEMP:  34;                                

AURORA         CLOUDY    32  30  92 S15       30.03S FOG     WCI  22  
6HR MIN TEMP:  32; 6HR MAX TEMP:  33;                                

LANSING*       CLOUDY    32  32 100 SW14      30.07S WCI  22          
JOLIET*        CLOUDY    33  33  96 S8        30.05S FOG     WCI  27  
WAUKEGAN       CLOUDY    33  32  96 S13       29.99F FOG     WCI  24  
6HR MIN TEMP:  32; 6HR MAX TEMP:  33;                                

DUPAGE AIRPORT FOG       32  29  88 S16       30.01F VSB 1   WCI  21  
6HR MIN TEMP:  31; 6HR MAX TEMP:  33;                                

KANKAKEE*      CLOUDY    33  31  92 S10       30.07F WCI  25          
WHEELING       CLOUDY    33  31  92 S13G20    30.03F FOG     WCI  24  
6HR MIN TEMP:  32; 6HR MAX TEMP:  33;                                

MORRIS*        CLOUDY    32  31  96 S10       30.04S FOG     WCI  24  
ROMEOVILLE*    CLOUDY    32  32 100 S10       30.04S FOG     WCI  24  
NORTHERLY ISL    N/A     33  30  89 S12         N/A  WCI  24          
$$

LMZ740>746-051900-
SOUTHERN LAKE MICHIGAN
  
STATION/POSITION SKY/WX   TEMP    WIND        PRES    VSBY  WAVE
                          AIR SEA DIR/SP/G                  HT/PER
                          (F)     (DEG/KT/KT) (MB)    (MI)  (FT/S)
HARRISON CRIB              33     180/ 18/ 21   N/A
BURNHAM HARBOR             33     190/ 11/ 14   N/A
CALUMET HARBOR             32     170/ 11/ 18 1017.1R
BURNS HARBOR               33     190/ 12/ 15 1018.6S
$$

ILZ025>027-034>036-040-047-049-050-058-095>099-051900-
WEST-CENTRAL ILLINOIS
  
CITY           SKY/WX    TMP DP  RH WIND       PRES   REMARKS
QUINCY         FOG       36  35  96 S12       29.96F VSB 1/2 WCI  28  
GALESBURG*     CLOUDY    34  34 100 S9        29.98S FOG     WCI  27  
MACOMB*        CLOUDY    35  35 100 S13G18    30.00F FOG     WCI  26  
JACKSONVILLE*  CLOUDY    38  35  88 S7        30.00F WCI  33          
PITTSFIELD*    CLOUDY    37  37  98 SE8       29.99F WCI  31          
$$

ILZ028>032-037-038-041>044-048-051>054-059>061-051900-
CENTRAL ILLINOIS
  
CITY           SKY/WX    TMP DP  RH WIND       PRES   REMARKS
PONTIAC        CLOUDY    33  33 100 S12       30.04F FOG     WCI  24  
BLOOMINGTON    FOG       33  31  92 S13       30.02F VSB 1   WCI  24  
DECATUR        CLOUDY    36  33  89 S8        30.04F WCI  30          
PEORIA         CLOUDY    35  34  96 S13       30.01F WCI  26          
6HR MIN TEMP:  33; 6HR MAX TEMP:  36;                                

LACON*         CLOUDY    35  33  92 S9        30.01F WCI  27          
LINCOLN*       CLOUDY    37  35  95 S9        30.02F WCI  30          
SPRINGFIELD    CLOUDY    39  36  89 SE13      30.01F WCI  31          
6HR MIN TEMP:  35; 6HR MAX TEMP:  40;                                

TAYLORVILLE    CLOUDY    36  34  92 S8        30.02F WCI  30          
6HR MIN TEMP:  34; 6HR MAX TEMP:  36;                                

$$

ILZ033-039-045-046-055>057-062-063-051900-
EAST-CENTRAL ILLINOIS
  
CITY           SKY/WX    TMP DP  RH WIND       PRES   REMARKS
CHAMPAIGN      CLOUDY    36  32  85 SE9       30.03F WCI  29          
RANTOUL*       CLOUDY    36  34  92 S10       30.03F WCI  28          
MATTOON        CLOUDY    37  33  85 S7        30.03F WCI  32          
PARIS*         CLOUDY    37  34  90 SE7       30.05F WCI  31          
$$

ILZ079-100>102-051900-
SOUTHWEST ILLINOIS
  
CITY           SKY/WX    TMP DP  RH WIND       PRES   REMARKS
ALTON          PTSUNNY   39  36  87 E7        30.01F WCI  34          
BELLEVILLE     CLOUDY    41  38  87 E9        30.01F                  
CAHOKIA*       CLOUDY    44  36  73 SE10      30.01F                  
SPARTA*        CLOUDY    42  35  77 SE8       30.03F                  
$$

ILZ064>066-069>071-074>076-080>082-084>086-088>090-092>094-051900-
SOUTH-CENTRAL ILLINOIS
  
CITY           SKY/WX    TMP DP  RH WIND       PRES   REMARKS
CARBONDALE     CLOUDY    41  36  82 SE7       30.04F                  
6HR MIN TEMP:  33; 6HR MAX TEMP:  41;                                

CAIRO*         PTSUNNY   42  37  81 E6        30.03F                  
EFFINGHAM*     CLOUDY    38  36  91 SE7       30.07S WCI  33          
MARION         CLOUDY    41  37  87 SE12      30.05F                  
CENTRALIA*     CLOUDY    41  36  82 SE6       30.03F HAZE             
SALEM*         CLOUDY    40  34  79 E6        30.05S                  
METROPOLIS*    PTSUNNY   42  36  77 E6        30.03F                  
$$

ILZ067-068-072-073-078-083-087-091-051900-
SOUTHEAST ILLINOIS
  
CITY           SKY/WX    TMP DP  RH WIND       PRES   REMARKS
LAWRENCEVILLE  MOSUNNY   41  34  76 E9        30.07F                  
FLORA*         CLOUDY    40  35  81 E7        30.06F                  
FAIRFIELD*     CLOUDY    40  35  83 E6        30.04F                  
HARRISBURG*    CLOUDY    39  35  84 E9        30.06F WCI  33          
ROBINSON*      CLOUDY    39  34  81 SE6       30.08F WCI  35          
CARMI*         CLOUDY    40  36  86 E6        30.05F                  
$$

ABBREVIATIONS USED IN REMARKS
   TC - TEMPERATURE IN CELSIUS
  WCI - WIND CHILL INDEX
   HX - HEAT INDEX
  VSB - VISIBILITY
$$

  

Return to Home page


Western Regional Climate Center, wrcc@dri.edu